User: anonymous
Location: La Vergne
(36.0160°N, 86.5820°W)
Time: 08:43:21
(UTC-05:00)
Language:

Cosmos 1703 Rocket - Orbit

View from above orbital plane
View from above orbital plane
View from above satellite
View from above satellite

Ground track
Ground track

The orbit data is extracted from the following two-line orbital elements,

1 16263U 85108B   14106.16712322  .00000363  00000-0  42349-4 0  6261
2 16263 082.5017 120.3054 0020257 196.2274 208.4037 14.82358402532781
Epoch (UTC): 16 April 2014 04:00:39
Eccentricity: 0.0020257
inclination: 82.5017°
perigee height: 608 km
apogee height: 636 km
right ascension of ascending node: 120.3054°
argument of perigee: 196.2274°
revolutions per day: 14.82358402
mean anomaly at epoch: 208.4037°
orbit number at epoch: 53278

The dashed part of the orbit path shows where the satellite is in the earth's shadow,  

DLR